Location: Kyle
(50.8323°N, 108.0393°W)
Time: 07:12:28
(UTC+00:00)

Tiangong - Visible Passes

Search period start: 28 January 2022 00:00
Search period end: 07 February 2022 00:00
Orbit: 381 x 387 km, 41.5° (Epoch: 27 January)

Date Brightness Start Highest point End Pass type
(mag) Time Alt. Az. Time Alt. Az. Time Alt. Az.
30 Jan 3.6 01:43:01 10° S 01:44:03 11° SSE 01:44:27 11° SSE visible
31 Jan 3.7 02:18:34 10° SSW 02:19:43 14° SSW 02:19:43 14° SSW visible
01 Feb 3.6 01:19:11 10° SSW 01:20:52 14° S 01:22:34 10° SE visible
02 Feb 3.4 01:55:17 10° SW 01:57:17 16° S 01:57:57 15° SSE visible
03 Feb 3.6 00:55:39 10° SSW 00:57:36 15° S 00:59:32 10° SE visible
03 Feb 3.9 02:32:08 10° SW 02:33:10 13° SSW 02:33:10 13° SSW visible
04 Feb 3.7 01:32:04 10° SW 01:33:57 15° S 01:35:50 10° SSE visible
05 Feb 4.0 02:09:42 10° SSW 02:10:15 10° SSW 02:10:47 10° S visible
06 Feb 3.9 01:08:59 10° SW 01:10:30 13° SSW 01:12:02 10° SSE visible
